KL3RR-2 Weather Reports


time (UTC)temp
C
wind
direction
speed
KPH
gust
KPH
rain 1hr
cm
rain 24hr
cm
rain mn
cm
humidity
%
barometer
mb
20260507073610 4 0.0 0.0 0.00 0.00 0.00 88 1016.6
20260507073109 4 0.0 0.0 0.00 0.00 0.00 88 1016.7
20260507072608 4 0.0 0.0 0.00 0.00 0.00 88 1016.5
20260507072107 4 0.0 0.0 0.00 0.00 0.00 88 1016.4
20260507071606 4 0.0 0.0 0.00 0.00 0.00 88 1016.4
20260507071105 4 0.0 0.0 0.00 0.00 0.00 88 1016.3
20260507070604 4 0.0 0.0 0.00 0.00 0.00 87 1016.2
20260507065602 4 0.0 0.0 0.00 0.00 0.00 87 1016.1
20260507065101 4 0.0 0.0 0.00 0.00 0.00 86 1016.1
20260507064600 4 0.0 0.0 0.00 0.00 0.00 86 1016.1
20260507064059 5 0.0 0.0 0.00 0.00 0.00 85 1016.1
20260507063558 5 0.0 0.0 0.00 0.00 0.00 85 1016.0
20260507063057 5 0.0 0.0 0.00 0.00 0.00 85 1016.0
20260507062556 5 0.0 0.0 0.00 0.00 0.00 84 1016.0
20260507062055 5 0.0 0.0 0.00 0.00 0.00 84 1016.0
20260507061554 5 0.0 0.0 0.00 0.00 0.00 84 1015.9
20260507061053 5 0.0 0.0 0.00 0.00 0.00 85 1016.0
20260507060552 5 0.0 0.0 0.00 0.00 0.00 85 1015.9
20260507060051 5 0.0 0.0 0.00 0.00 0.00 85 1015.8
20260507055550 5 0.0 0.0 0.00 0.00 0.00 86 1015.8
20260507055049 5 0.0 0.0 0.00 0.00 0.00 86 1015.8
20260507054548 5 0.0 0.0 0.00 0.00 0.00 86 1015.6
20260507054047 5 0.0 0.0 0.00 0.00 0.00 85 1015.6
20260507053546 5 0.0 0.0 0.00 0.00 0.00 84 1015.5
20260507053045 5 0.0 0.0 0.00 0.00 0.00 84 1015.4
20260507052544 5 0.0 0.0 0.00 0.00 0.00 83 1015.4
20260507052043 5 0.0 0.0 0.00 0.00 0.00 84 1015.4
20260507051542 5 0.0 0.0 0.00 0.00 0.00 84 1015.3
20260507051041 5 0.0 0.0 0.00 0.00 0.00 83 1015.3
20260507050540 5 0.0 0.0 0.00 0.00 0.00 83 1015.2
20260507050039 5 0.0 0.0 0.00 0.00 0.00 83 1015.2
20260507045538 5 0.0 0.0 0.00 0.00 0.00 82 1015.1
20260507045037 5 0.0 0.0 0.00 0.00 0.00 83 1015.1
20260507044536 5 0.0 0.0 0.00 0.00 0.00 83 1015.2
20260507044035 5 0.0 0.0 0.00 0.00 0.00 84 1015.1
20260507043534 5 0.0 0.0 0.00 0.00 0.00 83 1015.0
20260507043033 5 0.0 0.0 0.00 0.00 0.00 83 1015.0
20260507042532 5 0.0 0.0 0.00 0.00 0.00 83 1015.0
20260507042031 5 0.0 0.0 0.00 0.00 0.00 83 1014.9
20260507041530 5 0.0 0.0 0.00 0.00 0.00 83 1015.0
20260507041029 5 0.0 0.0 0.00 0.00 0.00 82 1015.0
20260507040528 5 0.0 0.0 0.00 0.00 0.00 83 1015.0
20260507040027 5 0.0 0.0 0.00 0.00 0.00 82 1015.0
20260507035526 5 0.0 0.0 0.00 0.00 0.00 81 1015.0
20260507035025 6 0.0 0.0 0.00 0.00 0.00 80 1015.0
20260507034524 6 0.0 0.0 0.00 0.00 0.00 78 1014.9
20260507034023 6 0.0 0.0 0.00 0.00 0.00 76 1015.0
20260507033522 6 0.0 0.0 0.00 0.00 0.00 73 1014.8
20260507033021 6 0.0 0.0 0.00 0.00 0.00 71 1014.8
20260507032520 6 0.0 0.0 0.00 0.00 0.00 68 1014.9
20260507032019 7 0.0 0.0 0.00 0.00 0.00 67 1014.8
20260507031518 7 0.0 0.0 0.00 0.00 0.00 66 1014.6
20260507031017 7 0.0 0.0 0.00 0.00 0.00 65 1014.4
20260507030516 7 0.0 0.0 0.00 0.00 0.00 64 1014.3
20260507030015 7 0.0 0.0 0.00 0.00 0.00 64 1014.2
20260507025514 8 0.0 0.0 0.00 0.00 0.00 64 1014.2
20260507025013 8 0.0 0.0 0.00 0.00 0.00 63 1014.2
20260507024512 8 0.0 0.0 0.00 0.00 0.00 64 1014.2
20260507024011 8 0.0 0.0 0.00 0.00 0.00 64 1014.1
20260507023510 8 0.0 0.0 0.00 0.00 0.00 64 1014.1
20260507023009 8 0.0 0.0 0.00 0.00 0.00 65 1014.1
20260507022508 8 0.0 0.0 0.00 0.00 0.00 66 1014.0
20260507022007 8 0.0 0.0 0.00 0.00 0.00 66 1014.0
20260507021506 8 0.0 0.0 0.00 0.00 0.00 66 1014.0
20260507021005 8 0.0 0.0 0.00 0.00 0.00 68 1013.9
20260507020504 8 0.0 0.0 0.00 0.00 0.00 68 1013.9
20260507020003 8 0.0 0.0 0.00 0.00 0.00 72 1013.9
20260507015502 7 0.0 0.0 0.00 0.00 0.00 72 1013.9
20260507015001 7 0.0 0.0 0.00 0.00 0.00 72 1013.9
20260507014500 7 0.0 0.0 0.00 0.00 0.00 72 1013.9
20260507013959 7 0.0 0.0 0.00 0.00 0.00 72 1014.0
20260507013458 7 0.0 0.0 0.00 0.00 0.00 72 1014.0
20260507012957 7 0.0 0.0 0.00 0.00 0.00 71 1013.9
20260507012456 7 0.0 0.0 0.00 0.00 0.00 70 1014.0
20260507011955 7 0.0 0.0 0.00 0.00 0.00 69 1014.0
20260507011454 8 0.0 0.0 0.00 0.00 0.00 69 1014.0
20260507010953 8 0.0 0.0 0.00 0.00 0.00 69 1014.0
20260507010452 7 0.0 0.0 0.00 0.00 0.00 68 1014.0
20260507005951 8 0.0 0.0 0.00 0.00 0.00 68 1013.9
20260507005450 8 0.0 0.0 0.00 0.00 0.00 68 1014.0
20260507004949 8 0.0 0.0 0.00 0.00 0.00 68 1014.0
20260507004448 8 0.0 0.0 0.00 0.00 0.00 67 1013.9
20260507003947 8 0.0 0.0 0.00 0.00 0.00 67 1013.9
20260507003446 8 0.0 0.0 0.00 0.00 0.00 67 1013.9
20260507002945 8 0.0 0.0 0.00 0.00 0.00 66 1013.9
20260507002444 8 0.0 0.0 0.00 0.00 0.00 66 1013.8
20260507001943 8 0.0 0.0 0.00 0.00 0.00 66 1013.8
20260507001442 8 0.0 0.0 0.00 0.00 0.00 66 1013.8
20260507000941 8 0.0 0.0 0.00 0.00 0.00 65 1013.8
20260507000442 9 0.0 0.0 0.00 0.00 0.00 66 1013.7
20260506235939 9 0.0 0.0 0.00 0.00 0.00 66 1013.7
20260506235438 8 0.0 0.0 0.00 0.00 0.00 66 1013.7
20260506234937 8 0.0 0.0 0.00 0.00 0.00 65 1013.6
20260506234436 8 0.0 0.0 0.00 0.00 0.00 65 1013.6
20260506233935 8 0.0 0.0 0.00 0.00 0.00 65 1013.6
20260506233434 8 0.0 0.0 0.00 0.00 0.00 65 1013.6
20260506232933 8 0.0 0.0 0.00 0.00 0.00 65 1013.6
20260506232432 8 0.0 0.0 0.00 0.00 0.00 65 1013.5
20260506231931 8 0.0 0.0 0.00 0.00 0.00 64 1013.5
20260506231430 8 0.0 0.0 0.00 0.00 0.00 64 1013.5
20260506230929 8 0.0 0.0 0.00 0.00 0.00 64 1013.5
20260506230428 8 0.0 0.0 0.00 0.00 0.00 64 1013.5
20260506225927 8 0.0 0.0 0.00 0.00 0.00 64 1013.5
20260506225426 8 0.0 0.0 0.00 0.00 0.00 63 1013.5
20260506224925 8 0.0 0.0 0.00 0.00 0.00 63 1013.5
20260506224424 9 0.0 0.0 0.00 0.00 0.00 63 1013.4
20260506223923 8 0.0 0.0 0.00 0.00 0.00 63 1013.4
20260506223422 9 0.0 0.0 0.00 0.00 0.00 63 1013.4
20260506222921 9 0.0 0.0 0.00 0.00 0.00 63 1013.3
20260506222420 9 0.0 0.0 0.00 0.00 0.00 62 1013.3
20260506221919 9 0.0 0.0 0.00 0.00 0.00 62 1013.2
20260506221418 9 0.0 0.0 0.00 0.00 0.00 62 1013.2
20260506220917 10 0.0 0.0 0.00 0.00 0.00 62 1013.2
20260506220416 9 0.0 0.0 0.00 0.00 0.00 62 1013.1
20260506215915 10 0.0 0.0 0.00 0.00 0.00 61 1013.1
20260506215414 10 0.0 0.0 0.00 0.00 0.00 61 1013.1
20260506214913 10 0.0 0.0 0.00 0.00 0.00 61 1013.0
20260506214412 10 0.0 0.0 0.00 0.00 0.00 61 1013.1
20260506213911 10 0.0 0.0 0.00 0.00 0.00 61 1013.0
20260506213410 10 0.0 0.0 0.00 0.00 0.00 61 1013.0
20260506212909 9 0.0 0.0 0.00 0.00 0.00 62 1012.9
20260506212408 9 0.0 0.0 0.00 0.00 0.00 62 1012.8
20260506211907 8 0.0 0.0 0.00 0.00 0.00 62 1012.7
20260506211406 8 0.0 0.0 0.00 0.00 0.00 63 1012.7
20260506210905 9 0.0 0.0 0.00 0.00 0.00 63 1012.7
20260506210404 9 0.0 0.0 0.00 0.00 0.00 65 1012.7
20260506205903 8 0.0 0.0 0.00 0.00 0.00 64 1012.7
20260506205402 8 0.0 0.0 0.00 0.00 0.00 65 1012.7
20260506204901 8 0.0 0.0 0.00 0.00 0.00 65 1012.6
20260506204400 8 0.0 0.0 0.00 0.00 0.00 66 1012.6
20260506203859 8 0.0 0.0 0.00 0.00 0.00 65 1012.5
20260506203358 8 0.0 0.0 0.00 0.00 0.00 66 1012.5
20260506202857 8 0.0 0.0 0.00 0.00 0.00 66 1012.5
20260506202356 8 0.0 0.0 0.00 0.00 0.00 66 1012.4
20260506201855 7 0.0 0.0 0.00 0.00 0.00 66 1012.4
20260506201354 7 0.0 0.0 0.00 0.00 0.00 66 1012.3
20260506200853 7 0.0 0.0 0.00 0.00 0.00 66 1012.4
20260506200352 7 0.0 0.0 0.00 0.00 0.00 66 1012.3
20260506195851 7 0.0 0.0 0.00 0.00 0.00 66 1012.2
20260506195350 7 0.0 0.0 0.00 0.00 0.00 65 1012.2
20260506194849 7 0.0 0.0 0.00 0.00 0.00 67 1012.1
20260506194348 7 0.0 0.0 0.00 0.00 0.00 68 1012.1
20260506193847 7 0.0 0.0 0.00 0.00 0.00 68 1012.1
20260506193346 7 0.0 0.0 0.00 0.00 0.00 68 1012.2
20260506192845 7 0.0 0.0 0.00 0.00 0.00 68 1012.2
20260506192344 7 0.0 0.0 0.00 0.00 0.00 68 1012.2
20260506191843 7 0.0 0.0 0.00 0.00 0.00 68 1012.1
20260506191342 7 0.0 0.0 0.00 0.00 0.00 69 1012.2
20260506190841 7 0.0 0.0 0.00 0.00 0.00 69 1012.1
20260506190340 7 0.0 0.0 0.00 0.00 0.00 70 1012.1
20260506185839 7 0.0 0.0 0.00 0.00 0.00 69 1012.1
20260506185338 7 0.0 0.0 0.00 0.00 0.00 70 1012.1
20260506184837 7 0.0 0.0 0.00 0.00 0.00 69 1012.1
20260506184336 7 0.0 0.0 0.00 0.00 0.00 70 1012.1
20260506183835 7 0.0 0.0 0.00 0.00 0.00 70 1012.0
20260506183334 7 0.0 0.0 0.00 0.00 0.00 71 1012.0
20260506182833 7 0.0 0.0 0.00 0.00 0.00 71 1012.0
20260506182332 7 0.0 0.0 0.00 0.00 0.00 71 1012.0
20260506181831 7 0.0 0.0 0.00 0.00 0.00 71 1011.9
20260506181330 7 0.0 0.0 0.00 0.00 0.00 71 1011.8
20260506180829 7 0.0 0.0 0.00 0.00 0.00 71 1011.8
20260506180328 7 0.0 0.0 0.00 0.00 0.00 71 1011.8
20260506175827 7 0.0 0.0 0.00 0.00 0.00 71 1011.8
20260506175326 6 0.0 0.0 0.00 0.00 0.00 71 1011.8
20260506174825 6 0.0 0.0 0.00 0.00 0.00 71 1011.7
20260506174324 6 0.0 0.0 0.00 0.00 0.00 71 1011.7
20260506173823 6 0.0 0.0 0.00 0.00 0.00 71 1011.7
20260506173322 6 0.0 0.0 0.00 0.00 0.00 71 1011.7
20260506172821 6 0.0 0.0 0.00 0.00 0.00 71 1011.7
20260506172320 6 0.0 0.0 0.00 0.00 0.00 72 1011.6
20260506171819 6 0.0 0.0 0.00 0.00 0.00 72 1011.6
20260506171318 6 0.0 0.0 0.00 0.00 0.00 72 1011.6
20260506170817 6 0.0 0.0 0.00 0.00 0.00 72 1011.5
20260506170316 6 0.0 0.0 0.00 0.00 0.00 72 1011.5
20260506165815 6 0.0 0.0 0.00 0.00 0.00 72 1011.5
20260506165314 5 0.0 0.0 0.00 0.00 0.00 72 1011.5
20260506164813 5 0.0 0.0 0.00 0.00 0.00 72 1011.4
20260506164312 5 0.0 0.0 0.00 0.00 0.00 73 1011.4
20260506163811 5 0.0 0.0 0.00 0.00 0.00 73 1011.4
20260506163310 5 0.0 0.0 0.00 0.00 0.00 73 1011.3
20260506162809 5 0.0 0.0 0.00 0.00 0.00 73 1011.2
20260506162308 5 0.0 0.0 0.00 0.00 0.00 73 1011.2
20260506161807 5 0.0 0.0 0.00 0.00 0.00 73 1011.2
20260506161306 5 0.0 0.0 0.00 0.00 0.00 73 1011.1
20260506160805 5 0.0 0.0 0.00 0.00 0.00 73 1011.1
20260506160304 5 0.0 0.0 0.00 0.00 0.00 73 1011.0
20260506155803 5 0.0 0.0 0.00 0.00 0.00 73 1011.0
20260506155305 5 0.0 0.0 0.00 0.00 0.00 73 1011.0
20260506154801 5 0.0 0.0 0.00 0.00 0.00 73 1011.0
20260506154300 5 0.0 0.0 0.00 0.00 0.00 73 1011.0
20260506153759 5 0.0 0.0 0.00 0.00 0.00 73 1011.0
20260506153258 5 0.0 0.0 0.00 0.00 0.00 73 1011.0
20260506152757 5 0.0 0.0 0.00 0.00 0.00 74 1010.9
20260506152256 5 0.0 0.0 0.00 0.00 0.00 74 1010.9
20260506151755 5 0.0 0.0 0.00 0.00 0.00 74 1011.0
20260506151254 4 0.0 0.0 0.00 0.00 0.00 74 1010.9
20260506150753 4 0.0 0.0 0.00 0.00 0.00 74 1010.8
20260506150252 4 0.0 0.0 0.00 0.00 0.00 74 1010.7
20260506145751 4 0.0 0.0 0.00 0.00 0.00 74 1010.8
20260506145250 4 0.0 0.0 0.00 0.00 0.00 75 1010.8
20260506144749 4 0.0 0.0 0.00 0.00 0.00 75 1010.7
20260506144248 4 0.0 0.0 0.00 0.00 0.00 75 1010.7
20260506143747 4 0.0 0.0 0.00 0.00 0.00 75 1010.7
20260506143246 4 0.0 0.0 0.00 0.00 0.00 75 1010.6
20260506142745 4 0.0 0.0 0.00 0.00 0.00 75 1010.6
20260506142244 4 0.0 0.0 0.00 0.00 0.00 75 1010.6
20260506141743 4 0.0 0.0 0.00 0.00 0.00 76 1010.6
20260506141242 4 0.0 0.0 0.00 0.00 0.00 76 1010.6
20260506140741 4 0.0 0.0 0.00 0.00 0.00 76 1010.6
20260506140240 4 0.0 0.0 0.00 0.00 0.00 76 1010.6
20260506135739 4 0.0 0.0 0.00 0.00 0.00 76 1010.5
20260506135238 4 0.0 0.0 0.00 0.00 0.00 76 1010.5
20260506134737 4 0.0 0.0 0.00 0.00 0.00 76 1010.6
20260506134236 4 0.0 0.0 0.00 0.00 0.00 76 1010.6
20260506133735 4 0.0 0.0 0.00 0.00 0.00 77 1010.6
20260506133234 4 0.0 0.0 0.00 0.00 0.00 76 1010.5
20260506132733 5 0.0 0.0 0.00 0.00 0.00 74 1010.5
20260506132232 5 0.0 0.0 0.00 0.00 0.00 74 1010.5
20260506131731 5 0.0 0.0 0.00 0.00 0.00 74 1010.5
20260506131230 5 0.0 0.0 0.00 0.00 0.00 74 1010.4
20260506130729 5 0.0 0.0 0.00 0.00 0.00 74 1010.4
20260506130228 5 0.0 0.0 0.00 0.00 0.00 74 1010.4
20260506125727 5 0.0 0.0 0.00 0.00 0.00 74 1010.4
20260506125226 5 0.0 0.0 0.00 0.00 0.00 74 1010.3
20260506124725 5 0.0 0.0 0.00 0.00 0.00 73 1010.3
20260506124224 5 0.0 0.0 0.00 0.00 0.00 73 1010.3
20260506123723 5 0.0 0.0 0.00 0.00 0.00 73 1010.3
20260506123222 5 0.0 0.0 0.00 0.00 0.00 73 1010.2
20260506122721 5 0.0 0.0 0.00 0.00 0.00 72 1010.3
20260506122220 5 0.0 0.0 0.00 0.00 0.00 72 1010.2
20260506121719 5 0.0 0.0 0.00 0.00 0.00 72 1010.2
20260506121218 5 0.0 0.0 0.00 0.00 0.00 72 1010.2
20260506120717 5 0.0 0.0 0.00 0.00 0.00 73 1010.1
20260506120216 5 0.0 0.0 0.00 0.00 0.00 72 1010.1
20260506115715 5 0.0 0.0 0.00 0.00 0.00 72 1010.1
20260506115214 5 0.0 0.0 0.00 0.00 0.00 72 1010.1
20260506114713 5 0.0 0.0 0.00 0.00 0.00 72 1010.1
20260506114212 5 0.0 0.0 0.00 0.00 0.00 71 1010.0
20260506113711 5 0.0 0.0 0.00 0.00 0.00 71 1010.1
20260506113210 5 0.0 0.0 0.00 0.00 0.00 71 1010.1
20260506112709 5 0.0 0.0 0.00 0.00 0.00 71 1010.1
20260506112208 5 0.0 0.0 0.00 0.00 0.00 71 1010.1
20260506111707 5 0.0 0.0 0.00 0.00 0.00 71 1010.2
20260506111206 5 0.0 0.0 0.00 0.00 0.00 71 1010.2
20260506110705 5 0.0 0.0 0.00 0.00 0.00 71 1010.2
20260506110204 5 0.0 0.0 0.00 0.00 0.00 71 1010.1
20260506105703 5 0.0 0.0 0.00 0.00 0.00 70 1010.1
20260506105202 5 0.0 0.0 0.00 0.00 0.00 70 1010.0
20260506104701 5 0.0 0.0 0.00 0.00 0.00 70 1009.9
20260506104200 5 0.0 0.0 0.00 0.00 0.00 69 1009.9
20260506103659 5 0.0 0.0 0.00 0.00 0.00 69 1009.9
20260506103158 5 0.0 0.0 0.00 0.00 0.00 68 1009.9
20260506102657 5 0.0 0.0 0.00 0.00 0.00 67 1009.9
20260506102156 5 0.0 0.0 0.00 0.00 0.00 67 1009.9
20260506101655 5 0.0 0.0 0.00 0.00 0.00 67 1009.9
20260506101154 5 0.0 0.0 0.00 0.00 0.00 66 1009.9
20260506100653 5 0.0 0.0 0.00 0.00 0.00 67 1009.8
20260506100152 5 0.0 0.0 0.00 0.00 0.00 66 1009.8
20260506095651 5 0.0 0.0 0.00 0.00 0.00 66 1009.8
20260506095150 5 0.0 0.0 0.00 0.00 0.00 66 1009.8
20260506094649 5 0.0 0.0 0.00 0.00 0.00 66 1009.7
20260506094148 5 0.0 0.0 0.00 0.00 0.00 66 1009.7
20260506093647 5 0.0 0.0 0.00 0.00 0.00 66 1009.7
20260506093146 5 0.0 0.0 0.00 0.00 0.00 66 1009.6
20260506092645 5 0.0 0.0 0.00 0.00 0.00 65 1009.6
20260506092144 5 0.0 0.0 0.00 0.00 0.00 64 1009.5
20260506091643 5 0.0 0.0 0.00 0.00 0.00 63 1009.5
20260506091142 5 0.0 0.0 0.00 0.00 0.00 62 1009.5
20260506090641 6 0.0 0.0 0.00 0.00 0.00 61 1009.4
20260506090140 6 0.0 0.0 0.00 0.00 0.00 61 1009.3
20260506085639 6 0.0 0.0 0.00 0.00 0.00 60 1009.3
20260506085138 6 0.0 0.0 0.00 0.00 0.00 59 1009.3
20260506084637 6 0.0 0.0 0.00 0.00 0.00 59 1009.2
20260506084136 6 0.0 0.0 0.00 0.00 0.00 60 1009.1
20260506083635 6 0.0 0.0 0.00 0.00 0.00 60 1009.1
20260506083134 6 0.0 0.0 0.00 0.00 0.00 59 1009.1
20260506082633 6 0.0 0.0 0.00 0.00 0.00 59 1009.0
20260506082132 6 0.0 0.0 0.00 0.00 0.00 59 1008.9
20260506081631 6 0.0 0.0 0.00 0.00 0.00 59 1008.8
20260506081130 6 0.0 0.0 0.00 0.00 0.00 58 1008.7
20260506080629 6 0.0 0.0 0.00 0.00 0.00 58 1008.7
20260506080128 6 0.0 0.0 0.00 0.00 0.00 58 1008.7